Terminal Aerodrome Forecast
Issued by NWS

Home | Current Version | Previous Version | Text Only | Print | Product List | Glossary On
Versions: 1 2 3 4 5 6 7 8 9 10 11 12 13 14 15 16 17 18 19 20 21 22 23 24 25 26 27 28 29 30 31 32 33 34 35 36
782
FTUS45 KBOI 100009 AAA
TAFTWF
TAF AMD
KTWF 100009Z 1000/1024 07009KT P6SM FEW007
     FM100200 10006KT 1/4SM FZFG VV002
     FM102100 06005KT 5SM BR BKN006=

USA.gov is the U.S. government's official web portal to all federal, state and local government web resources and services.